Flag for U.S.A. Weather past 2 weeks in Pueblo, Colorado, U.S.A.

Now
67 °F

Overcast.


Feels Like: 67 °F
Forecast: 60 / 69 °F
Wind: 3 mph from East

Location: Pueblo Memorial Airport

Current Time: Jul 6, 2015 at 11:51:24 PM

Latest Report: Jul 6, 2015 at 10:53 PM


Visibility: 9 mi

Pressure: 30.08 "Hg (25.45 "Hg at 1430m altitude)

Humidity: 71%

Dew point: 57 °F

Location of PuebloLocation

Historic Weather in Pueblo — Graph

°F

Pueblo temperature yesterday

Maximum temperature yesterday: 97 °F (at 1:53 PM)
Minimum temperature yesterday: 62 °F (at 3:53 AM)
Average temperature yesterday: 80 °F

Past Weeks' High & Low Weather Summary

 TemperatureHumidityPressure
High99 °F (Jun 24, 2:53 PM)90% (Jul 2, 3:53 AM)30.14 "Hg (Jul 2, 3:53 AM)
Low58 °F (Jun 22, 4:53 AM)14% (Jun 24, 4:04 PM)29.64 "Hg (Jul 5, 4:53 PM)
Average77 °F49%29.91 "Hg
* Reported Jun 21 10:53 PM — Jul 6 10:53 PM, Pueblo, Weather by CustomWeather, © 2015

Note: Actual official high and low records may vary slightly from our data, if they occured in-between our weather recording intervals... More about our weather records

Advertising

Pueblo weather history for previous 24 hours

 ConditionsComfort  
Time TempWeatherWind HumidityBarometerVisibility
10:53 PM
Mon, Jul 6
67 °FOvercast.3 mph71%30.08 "Hg9 mi
9:53 PM66 °FOvercast.3 mph81%30.08 "Hg10 mi
8:53 PM67 °FOvercast.6 mph79%30.06 "Hg10 mi
7:53 PM69 °FOvercast.No wind66%30.06 "Hg10 mi
6:53 PM69 °FOvercast.9 mph68%30.04 "Hg10 mi
5:53 PM68 °FLight rain. Overcast.12 mph78%30.04 "Hg10 mi
4:53 PM67 °FLight rain. Overcast.12 mph81%30.06 "Hg7 mi
3:53 PM70 °FLight rain. Mostly cloudy.20 mph68%30.03 "Hg8 mi
2:53 PM77 °FMostly cloudy.17 mph48%29.99 "Hg10 mi
1:53 PM79 °FCloudy.17 mph45%29.97 "Hg10 mi
12:53 PM82 °FPartly sunny.15 mph41%29.96 "Hg10 mi
11:53 AM81 °FScattered clouds.12 mph42%29.96 "Hg10 mi
10:53 AM81 °FPassing clouds.15 mph44%29.96 "Hg10 mi
9:53 AM78 °FSunny.12 mph50%29.96 "Hg10 mi
8:53 AM75 °FScattered clouds.8 mph55%29.95 "Hg10 mi
7:53 AM73 °FScattered clouds.10 mph59%29.92 "Hg10 mi
6:53 AM71 °FPartly sunny.7 mph66%29.90 "Hg10 mi
5:53 AM69 °FLight rain. Mostly cloudy.6 mph73%29.88 "Hg10 mi
4:53 AM70 °FOvercast.7 mph66%29.86 "Hg10 mi
3:53 AM70 °FClear.13 mph66%29.85 "Hg10 mi
2:53 AM70 °FOvercast.12 mph68%29.85 "Hg10 mi
1:53 AM71 °FLight rain. Mostly cloudy.8 mph68%29.84 "Hg10 mi
12:53 AM74 °FOvercast.14 mph56%29.82 "Hg10 mi
11:53 PM
Sun, Jul 5
76 °FPassing clouds.9 mph50%29.78 "Hg10 mi
Weather by CustomWeather, © 2015

See weather overviewHow to use our weather pages